When you browse on this site, cookies collect data to enhance your experience and personalize the content and advertising you see.
Visit our Privacy Policy to learn more. By continuing to use the site, you agree to this use of cookies and data.
  • In United Kingdom
  • List of Countries
  • For 7 days
  • Water Temperature
  • Weather Map
  • Weather Widgets
  • user-avatar
    Login

    Hourly Weather Westerstede

    Today, 24 September, Tuesday

    Time Temperature Precipitation Wind Pressure Humidity
    00:00 +14°C° 0 mm 2 mps 760 mmHg 95%
    01:00 +14°C° 0 mm 1 mps 760 mmHg 95%
    02:00 +13°C° 0 mm 1 mps 760 mmHg 94%
    03:00 +13°C° 0 mm 2 mps 759 mmHg 94%
    04:00 +13°C° 0 mm 2 mps 759 mmHg 94%
    05:00 +13°C° 0 mm 2 mps 759 mmHg 93%
    06:00 +13°C° 0 mm 2 mps 759 mmHg 93%
    07:00 +12°C° 0 mm 3 mps 758 mmHg 93%
    08:00 +13°C° 0 mm 3 mps 758 mmHg 89%
    09:00 +16°C° 0 mm 3 mps 758 mmHg 84%
    10:00 +18°C° 0 mm 4 mps 758 mmHg 80%
    11:00 +19°C° 0 mm 4 mps 757 mmHg 74%
    12:00 +20°C° 0 mm 4 mps 757 mmHg 68%
    13:00 +21°C° 0 mm 4 mps 756 mmHg 62%
    14:00 +20°C° 0 mm 4 mps 756 mmHg 64%
    15:00 +20°C° 0 mm 3 mps 755 mmHg 67%
    16:00 +20°C° 0 mm 3 mps 755 mmHg 69%
    17:00 +19°C° 0 mm 3 mps 755 mmHg 71%
    18:00 +18°C° 0 mm 3 mps 754 mmHg 72%
    19:00 +17°C° 0 mm 3 mps 754 mmHg 73%
    20:00 +16°C° 0.2 mm 3 mps 754 mmHg 78%
    21:00 +16°C° 0.2 mm 2 mps 754 mmHg 83%
    22:00 +15°C° 0.2 mm 2 mps 754 mmHg 88%
    23:00 +15°C° 0.8 mm 2 mps 753 mmHg 91%

    Tomorrow, 25 September, Wednesday

    Time Temperature Precipitation Wind Pressure Humidity
    00:00 +14°C° 0.8 mm 3 mps 753 mmHg 94%
    01:00 +13°C° 0.8 mm 3 mps 753 mmHg 96%
    02:00 +13°C° 0.3 mm 3 mps 753 mmHg 96%
    03:00 +13°C° 0.3 mm 3 mps 752 mmHg 96%
    04:00 +13°C° 0.3 mm 3 mps 752 mmHg 96%
    05:00 +13°C° 0.1 mm 3 mps 752 mmHg 96%
    06:00 +14°C° 0.1 mm 2 mps 752 mmHg 97%
    07:00 +14°C° 0.1 mm 2 mps 752 mmHg 97%
    08:00 +13°C° 0 mm 3 mps 752 mmHg 93%
    09:00 +14°C° 0 mm 3 mps 752 mmHg 90%
    10:00 +15°C° 0 mm 4 mps 753 mmHg 86%
    11:00 +15°C° 0 mm 4 mps 753 mmHg 85%
    12:00 +17°C° 0 mm 4 mps 753 mmHg 83%
    13:00 +17°C° 0 mm 4 mps 753 mmHg 82%
    14:00 +17°C° 0.2 mm 4 mps 753 mmHg 83%
    15:00 +17°C° 0.2 mm 4 mps 753 mmHg 84%
    16:00 +15°C° 0.2 mm 4 mps 753 mmHg 84%
    17:00 +16°C° 0.1 mm 3 mps 753 mmHg 87%
    18:00 +15°C° 0.1 mm 2 mps 753 mmHg 89%
    19:00 +14°C° 0.1 mm 1 mps 753 mmHg 91%
    20:00 +14°C° 0 mm 2 mps 754 mmHg 92%
    21:00 +13°C° 0 mm 2 mps 754 mmHg 92%
    22:00 +12°C° 0 mm 3 mps 754 mmHg 93%
    23:00 +12°C° 0 mm 3 mps 754 mmHg 94%

    Day after tomorrow, 26 September, Thursday

    Time Temperature Precipitation Wind Pressure Humidity
    00:00 +11°C° 0 mm 3 mps 754 mmHg 94%
    01:00 +11°C° 0 mm 3 mps 754 mmHg 95%
    02:00 +11°C° 0 mm 3 mps 754 mmHg 95%
    03:00 +11°C° 0 mm 3 mps 754 mmHg 95%
    04:00 +11°C° 0 mm 3 mps 754 mmHg 95%
    05:00 +11°C° 0.1 mm 4 mps 754 mmHg 95%
    06:00 +12°C° 0.1 mm 4 mps 754 mmHg 94%
    07:00 +12°C° 0.1 mm 4 mps 754 mmHg 94%
    08:00 +13°C° 0.1 mm 4 mps 754 mmHg 93%
    09:00 +15°C° 0.1 mm 4 mps 755 mmHg 91%
    10:00 +17°C° 0.1 mm 4 mps 755 mmHg 90%
    11:00 +16°C° 0.2 mm 5 mps 755 mmHg 87%
    12:00 +17°C° 0.2 mm 5 mps 755 mmHg 84%
    13:00 +19°C° 0.2 mm 5 mps 755 mmHg 81%
    14:00 +17°C° 0.3 mm 5 mps 755 mmHg 84%
    15:00 +17°C° 0.3 mm 5 mps 755 mmHg 88%
    16:00 +16°C° 0.3 mm 5 mps 755 mmHg 91%
    17:00 +16°C° 0.5 mm 5 mps 755 mmHg 92%
    18:00 +15°C° 0.5 mm 5 mps 755 mmHg 94%
    19:00 +15°C° 0.5 mm 5 mps 754 mmHg 95%
    20:00 +15°C° 0.7 mm 5 mps 754 mmHg 95%
    21:00 +15°C° 0.7 mm 5 mps 755 mmHg 95%
    22:00 +16°C° 0.7 mm 5 mps 755 mmHg 95%
    23:00 +16°C° 0.3 mm 5 mps 755 mmHg 94%

    27 September, Friday

    Time Temperature Precipitation Wind Pressure Humidity
    00:00 +15°C° 0.3 mm 5 mps 755 mmHg 94%
    01:00 +15°C° 0.3 mm 5 mps 755 mmHg 93%
    02:00 +15°C° 0.3 mm 5 mps 755 mmHg 93%
    03:00 +14°C° 0.3 mm 4 mps 755 mmHg 94%
    04:00 +13°C° 0.3 mm 4 mps 755 mmHg 94%
    05:00 +13°C° 0.1 mm 4 mps 755 mmHg 95%
    06:00 +13°C° 0.1 mm 4 mps 755 mmHg 95%
    07:00 +12°C° 0.1 mm 4 mps 754 mmHg 95%
    08:00 +13°C° 0 mm 5 mps 754 mmHg 90%
    09:00 +15°C° 0 mm 5 mps 755 mmHg 85%
    10:00 +16°C° 0 mm 5 mps 755 mmHg 80%
    11:00 +16°C° 0.2 mm 5 mps 754 mmHg 77%
    12:00 +17°C° 0.2 mm 5 mps 754 mmHg 73%
    13:00 +17°C° 0.2 mm 6 mps 754 mmHg 69%
    14:00 +17°C° 0.5 mm 6 mps 754 mmHg 74%
    15:00 +16°C° 0.5 mm 6 mps 754 mmHg 79%
    16:00 +15°C° 0.5 mm 6 mps 754 mmHg 84%
    17:00 +14°C° 0.2 mm 5 mps 754 mmHg 87%
    18:00 +13°C° 0.2 mm 5 mps 754 mmHg 89%
    19:00 +13°C° 0.2 mm 4 mps 754 mmHg 92%
    20:00 +13°C° 0 mm 5 mps 754 mmHg 92%
    21:00 +12°C° 0 mm 5 mps 755 mmHg 92%
    22:00 +12°C° 0 mm 5 mps 755 mmHg 92%
    23:00 +11°C° 0 mm 6 mps 755 mmHg 92%

    28 September, Saturday

    Time Temperature Precipitation Wind Pressure Humidity
    00:00 +11°C° 0 mm 6 mps 754 mmHg 92%
    01:00 +13°C° 0 mm 6 mps 754 mmHg 92%
    02:00 +13°C° 0.1 mm 6 mps 754 mmHg 91%
    03:00 +12°C° 0.1 mm 7 mps 754 mmHg 91%
    04:00 +12°C° 0.1 mm 7 mps 754 mmHg 90%
    05:00 +12°C° 0.2 mm 7 mps 754 mmHg 90%
    06:00 +12°C° 0.2 mm 7 mps 753 mmHg 91%
    07:00 +11°C° 0.2 mm 7 mps 753 mmHg 91%
    08:00 +12°C° 0.5 mm 7 mps 754 mmHg 90%
    09:00 +12°C° 0.5 mm 8 mps 754 mmHg 90%
    10:00 +12°C° 0.5 mm 8 mps 754 mmHg 90%
    11:00 +13°C° 0.4 mm 8 mps 754 mmHg 84%
    12:00 +15°C° 0.4 mm 8 mps 754 mmHg 79%
    13:00 +16°C° 0.4 mm 8 mps 755 mmHg 73%
    14:00 +16°C° 0.1 mm 8 mps 755 mmHg 73%
    15:00 +16°C° 0.1 mm 7 mps 755 mmHg 73%
    16:00 +15°C° 0.1 mm 6 mps 755 mmHg 72%
    17:00 +14°C° 0 mm 5 mps 755 mmHg 77%
    18:00 +13°C° 0 mm 5 mps 756 mmHg 81%
    19:00 +12°C° 0 mm 4 mps 756 mmHg 86%
    20:00 +12°C° 0.3 mm 5 mps 756 mmHg 87%
    21:00 +12°C° 0.3 mm 5 mps 756 mmHg 89%
    22:00 +13°C° 0.3 mm 6 mps 756 mmHg 90%
    23:00 +11°C° 0.1 mm 6 mps 756 mmHg 91%

    29 September, Sunday

    Time Temperature Precipitation Wind Pressure Humidity
    00:00 +11°C° 0.1 mm 6 mps 756 mmHg 92%
    01:00 +11°C° 0.1 mm 6 mps 755 mmHg 92%
    02:00 +11°C° 0.1 mm 6 mps 755 mmHg 92%
    03:00 +10°C° 0.1 mm 6 mps 755 mmHg 91%
    04:00 +10°C° 0.1 mm 6 mps 755 mmHg 91%
    05:00 +10°C° 0 mm 6 mps 755 mmHg 91%
    06:00 +10°C° 0 mm 6 mps 755 mmHg 91%
    07:00 +10°C° 0 mm 6 mps 755 mmHg 91%
    08:00 +10°C° 0.5 mm 6 mps 754 mmHg 92%
    09:00 +10°C° 0.5 mm 5 mps 754 mmHg 93%
    10:00 +12°C° 0.5 mm 5 mps 754 mmHg 94%
    11:00 +12°C° 0.6 mm 5 mps 754 mmHg 94%
    12:00 +11°C° 0.6 mm 6 mps 754 mmHg 93%
    13:00 +11°C° 0.6 mm 6 mps 754 mmHg 93%
    14:00 +11°C° 0.1 mm 6 mps 753 mmHg 92%
    15:00 +11°C° 0.1 mm 6 mps 753 mmHg 92%
    16:00 +11°C° 0.1 mm 6 mps 752 mmHg 92%
    17:00 +11°C° 0 mm 6 mps 751 mmHg 92%
    18:00 +12°C° 0 mm 5 mps 751 mmHg 92%
    19:00 +12°C° 0 mm 5 mps 750 mmHg 92%
    20:00 +11°C° 0.9 mm 6 mps 750 mmHg 93%
    21:00 +11°C° 0.9 mm 6 mps 749 mmHg 94%
    22:00 +11°C° 0.9 mm 7 mps 748 mmHg 95%
    23:00 +12°C° 1.3 mm 7 mps 747 mmHg 94%
    Show more